Pierre, SD

4:07 PM CDT on September 20, 2019 (GMT -0500)
Pierre Regional

Weather History for KPIR - August, 2019

Change the Weather History Date:

Monday, August 19, 2019

  Actual Average Record
Temperature  
Mean Temperature 72 °F 73 °F  
Max Temperature 84 °F 87 °F 104 °F (1948)
Min Temperature 58 °F 60 °F 43 °F (1967)
Degree Days  
Heating Degree Days 0    
Month to date heating degree days 1  
Since 1 June heating degree days 43  
Since 1 July heating degree days 1  
Cooling Degree Days 6    
Month to date cooling degree days 119  
Year to date cooling degree days 530  
Since 1 June cooling degree days 519  
Growing Degree Days 22 (Base 50)    
Moisture  
Dew Point 67 °F    
Average Humidity 76    
Maximum Humidity 93    
Minimum Humidity 63    
Precipitation  
Precipitation 0.00 in 0.05 in 0.82 in (1912)
Month to date precipitation 3.32 1.21  
Year to date precipitation 23.74 14.59  
Sea Level Pressure  
Sea Level Pressure 29.84 in    
Wind  
Wind Speed 10 mph ()    
Max Wind Speed 22 mph    
Max Gust Speed 29 mph    
Visibility 10.0 miles    
Events      
T = Trace of Precipitation, MM = Missing Value Source: Averaged Metar Reports

Daily Weather History Graph

Daily Weather History Graph

Search for Another Location

Airport or City:

Astronomy

Aug. 19, 2019 Rise Set
Actual Time 6:48 AM CDT 8:40 PM CDT
Civil Twilight 6:17 AM CDT 9:11 PM CDT
Nautical Twilight 5:39 AM CDT 9:49 PM CDT
Astronomical Twilight 4:57 AM CDT 10:30 PM CDT
Moon 10:53 PM CDT (8/19) 10:39 AM CDT (8/19)
Length of Visible Light 14h 53m
Length of Day
13h 51m
Waning Gibbous, 85% of the Moon is Illuminated
Aug 19
Waning Gibbous
Aug 23
Last Quarter
Aug 30
New
Sep 5
First Quarter
Sep 13
Full

Hourly Weather History & Observations

Time (CDT) Temp. Heat Index Dew Point Humidity Pressure Visibility Wind Dir Wind Speed Gust Speed Precip Events Conditions
12:53 AM 63.0 °F - 55.9 °F 78% 29.90 in 10.0 mi SE 9.2 mph - N/A   Clear
1:53 AM 62.1 °F - 55.9 °F 80% 29.89 in 10.0 mi SE 11.5 mph - N/A   Clear
2:53 AM 62.1 °F - 55.9 °F 80% 29.88 in 10.0 mi SE 10.4 mph - N/A   Clear
3:53 AM 62.1 °F - 55.9 °F 80% 29.87 in 10.0 mi SE 9.2 mph - N/A   Clear
8:53 AM 66.9 °F - 62.1 °F 84% 29.88 in 10.0 mi SE 6.9 mph - N/A   Clear
9:53 AM 71.1 °F - 63.0 °F 75% 29.88 in 10.0 mi SSE 9.2 mph - N/A   Scattered Clouds
10:53 AM 73.9 °F - 64.9 °F 73% 29.88 in 10.0 mi SE 12.7 mph - N/A   Clear
12:53 PM 80.1 °F 82.7 °F 68.0 °F 67% 29.84 in 10.0 mi SE 10.4 mph 20.7 mph N/A   Clear
1:53 PM 79.0 °F - 68.0 °F 69% 29.83 in 10.0 mi SE 16.1 mph 28.8 mph N/A   Scattered Clouds
2:02 PM 79.0 °F - 68.0 °F 69% 29.87 in 10.0 mi SSE 18.4 mph 26.5 mph N/A   Mostly Cloudy
2:53 PM 80.1 °F 82.9 °F 69.1 °F 69% 29.82 in 10.0 mi SSE 12.7 mph - N/A   Overcast
3:53 PM 82.0 °F 86.3 °F 71.1 °F 69% 29.81 in 10.0 mi SSE 16.1 mph - N/A   Overcast
4:31 PM 82.9 °F 87.0 °F 70.0 °F 65% 29.83 in 10.0 mi SSE 17.3 mph - N/A   Overcast
4:53 PM 84.9 °F 90.1 °F 71.1 °F 63% 29.79 in 10.0 mi SSE 18.4 mph - N/A   Mostly Cloudy
5:53 PM 84.0 °F 89.6 °F 72.0 °F 67% 29.79 in 10.0 mi SE 13.8 mph - N/A   Scattered Clouds
6:53 PM 82.9 °F 88.8 °F 73.0 °F 72% 29.80 in 10.0 mi ESE 9.2 mph - N/A   Mostly Cloudy
7:53 PM 81.0 °F 85.8 °F 73.0 °F 77% 29.79 in 10.0 mi ESE 9.2 mph - N/A   Partly Cloudy
8:53 PM 77.0 °F - 73.0 °F 88% 29.78 in 10.0 mi ESE 8.1 mph - N/A   Clear
9:53 PM 75.9 °F - 72.0 °F 87% 29.80 in 10.0 mi ESE 8.1 mph - N/A   Clear
10:53 PM 75.0 °F - 72.0 °F 90% 29.81 in 10.0 mi ESE 8.1 mph - N/A   Clear
11:53 PM 73.0 °F - 71.1 °F 93% 29.81 in 10.0 mi East 6.9 mph - N/A   Clear